Location: Couloutre
(47.4081°N, 3.2259°E)
Time: 17:57:44
(UTC+00:00)

Lacrosse 5 rocket - Pass Details

Date: 27 February 2020
Orbit: 461 x 636 km, 57.0° (Epoch: 01 April)

Event Time Altitude Azimuth Distance (km) Brightness Sun altitude
Rises 18:39:16 0° 304° (NW) 2,873 6.0 -12.8°
Reaches altitude 10° 18:41:43 10° 315° (NW) 1,988 4.9 -13.2°
Maximum altitude 18:45:50 32° 19° (NNE) 1,081 2.6 -13.9°
Enters shadow 18:48:14 20° 68° (ENE) 1,460 2.9 -14.3°
